TimeCST,TemperatureF,Dew PointF,Humidity,Sea Level PressureIn,VisibilityMPH,Wind Direction,Wind SpeedMPH,Gust SpeedMPH,PrecipitationIn,Events,Conditions,WindDirDegrees,DateUTC
12:53 AM,30.0,26.1,85,30.27,10.0,South,4.6,-,N/A,,Overcast,190,2012-11-14 06:53:00
1:53 AM,30.0,26.1,85,30.27,10.0,SSW,4.6,-,N/A,,Mostly Cloudy,210,2012-11-14 07:53:00
2:53 AM,32.0,27.0,82,30.27,10.0,SW,5.8,-,N/A,,Mostly Cloudy,230,2012-11-14 08:53:00
3:53 AM,32.0,26.1,79,30.26,10.0,SW,3.5,-,N/A,,Overcast,230,2012-11-14 09:53:00
4:53 AM,32.0,26.1,79,30.26,10.0,Calm,Calm,-,N/A,,Mostly Cloudy,0,2012-11-14 10:53:00
5:53 AM,26.1,23.0,88,30.26,10.0,South,4.6,-,N/A,,Clear,170,2012-11-14 11:53:00
6:53 AM,28.0,24.1,85,30.25,10.0,South,3.5,-,N/A,,Clear,170,2012-11-14 12:53:00
7:53 AM,27.0,24.1,89,30.26,10.0,Calm,Calm,-,N/A,,Clear,0,2012-11-14 13:53:00
8:53 AM,32.0,27.0,82,30.26,10.0,SW,6.9,-,N/A,,Clear,230,2012-11-14 14:53:00
9:53 AM,34.0,27.0,75,30.26,10.0,SW,8.1,-,N/A,,Clear,220,2012-11-14 15:53:00
10:53 AM,37.9,28.9,70,30.25,10.0,SSW,9.2,-,N/A,,Clear,200,2012-11-14 16:53:00
11:53 AM,41.0,30.0,65,30.24,10.0,SSW,10.4,-,N/A,,Clear,200,2012-11-14 17:53:00
12:53 PM,43.0,32.0,65,30.21,10.0,South,9.2,-,N/A,,Clear,190,2012-11-14 18:53:00
1:53 PM,44.1,32.0,63,30.20,10.0,South,5.8,-,N/A,,Clear,190,2012-11-14 19:53:00
2:53 PM,45.0,30.9,58,30.18,10.0,South,9.2,-,N/A,,Clear,180,2012-11-14 20:53:00
3:53 PM,44.1,32.0,63,30.18,10.0,South,5.8,-,N/A,,Clear,180,2012-11-14 21:53:00
4:53 PM,39.0,28.9,67,30.17,10.0,South,5.8,-,N/A,,Clear,170,2012-11-14 22:53:00
5:53 PM,36.0,28.9,76,30.17,10.0,SSE,6.9,-,N/A,,Clear,160,2012-11-14 23:53:00
6:53 PM,36.0,30.0,79,30.17,10.0,SSE,8.1,-,N/A,,Clear,160,2012-11-15 00:53:00
7:53 PM,36.0,30.0,79,30.16,10.0,South,8.1,-,N/A,,Clear,170,2012-11-15 01:53:00
8:53 PM,36.0,30.0,79,30.16,10.0,South,6.9,-,N/A,,Overcast,180,2012-11-15 02:53:00
9:53 PM,39.0,30.0,70,30.14,10.0,South,6.9,-,N/A,,Clear,190,2012-11-15 03:53:00
10:53 PM,39.9,30.9,70,30.13,10.0,SSW,10.4,-,N/A,,Mostly Cloudy,200,2012-11-15 04:53:00
11:53 PM,39.9,30.9,70,30.13,10.0,SSW,9.2,-,N/A,,Mostly Cloudy,210,2012-11-15 05:53:00